DW4360 Weather Reports


time (UTC)temp
C
wind
direction
speed
KPH
gust
KPH
rain 1hr
cm
rain 24hr
cm
rain mn
cm
humidity
%
barometer
mb
20260510001643 28 320 4.8 0.0 0.00 0.00 0.00 24 1013.7
20260510000642 29 325 0.0 0.0 0.00 0.00 0.00 24 1013.6
20260509235641 29 13 0.0 0.0 0.00 0.00 0.00 24 1013.8
20260509234640 29 320 0.0 0.0 0.00 0.00 0.00 26 1013.9
20260509233639 28 322 0.0 0.0 0.00 0.00 0.00 27 1014.0
20260509232638 28 345 0.0 0.0 0.00 0.00 0.00 28 1014.0
20260509230636 28 342 0.0 0.0 0.00 0.00 0.00 30 1014.2
20260509225635 28 327 1.6 0.0 0.00 0.00 0.00 29 1014.6
20260509224633 28 325 0.0 0.0 0.00 0.00 0.00 28 1014.8
20260509223633 28 335 0.0 0.0 0.00 0.00 0.00 28 1014.9
20260509222632 27 9 0.0 0.0 0.00 0.00 0.00 30 1015.1
20260509221631 27 350 0.0 0.0 0.00 0.00 0.00 32 1015.4
20260509220629 27 328 0.0 0.0 0.00 0.00 0.00 32 1015.5
20260509215629 27 316 0.0 0.0 0.00 0.00 0.00 30 1015.7
20260509214627 26 317 1.6 0.0 0.00 0.00 0.00 32 1015.8
20260509213627 27 327 0.0 0.0 0.00 0.00 0.00 34 1015.9
20260509212625 26 333 0.0 0.0 0.00 0.00 0.00 34 1016.1
20260509211624 27 314 0.0 0.0 0.00 0.00 0.00 36 1016.1
20260509210624 26 344 8.0 0.0 0.00 0.00 0.00 39 1016.2
20260509205623 26 317 0.0 0.0 0.00 0.00 0.00 40 1016.1
20260509204621 25 329 0.0 0.0 0.00 0.00 0.00 43 1016.3
20260509202620 25 324 3.2 0.0 0.00 0.00 0.00 43 1016.5
20260509201619 25 320 0.0 0.0 0.00 0.00 0.00 44 1016.6
20260509200618 24 323 0.0 0.0 0.00 0.00 0.00 46 1016.9
20260509195616 23 336 0.0 0.0 0.00 0.00 0.00 47 1017.0
20260509193615 23 305 0.0 0.0 0.00 0.00 0.00 49 1017.2
20260509192613 23 347 0.0 0.0 0.00 0.00 0.00 49 1017.4
20260509191612 23 337 8.0 0.0 0.00 0.00 0.00 51 1017.5
20260509190612 22 320 0.0 0.0 0.00 0.00 0.00 53 1017.6
20260509185610 22 317 0.0 0.0 0.00 0.00 0.00 55 1017.8
20260509184609 22 320 0.0 0.0 0.00 0.00 0.00 55 1018.0
20260509183609 21 326 9.7 0.0 0.00 0.00 0.00 57 1018.1
20260509182607 21 78 0.0 0.0 0.00 0.00 0.00 58 1018.2
20260509181606 20 150 3.2 0.0 0.00 0.00 0.00 59 1018.3
20260509180605 19 314 0.0 0.0 0.00 0.00 0.00 63 1018.3
20260509175604 18 327 0.0 0.0 0.00 0.00 0.00 67 1018.3
20260509174603 18 348 0.0 0.0 0.00 0.00 0.00 68 1018.5
20260509173602 17 319 0.0 0.0 0.00 0.00 0.00 71 1018.6
20260509172601 16 322 0.0 0.0 0.00 0.00 0.00 73 1018.8
20260509171600 15 307 0.0 0.0 0.00 0.00 0.00 76 1019.1
20260509170559 15 165 0.0 0.0 0.00 0.00 0.00 77 1019.2
20260509165558 15 126 6.4 0.0 0.00 0.00 0.00 79 1019.3
20260509164557 14 323 0.0 0.0 0.00 0.00 0.00 80 1019.4
20260509163556 13 318 8.0 0.0 0.00 0.00 0.00 81 1019.5
20260509162555 13 325 0.0 0.0 0.00 0.00 0.00 81 1019.8
20260509161554 13 334 0.0 0.0 0.00 0.00 0.00 83 1019.9
20260509160553 13 323 0.0 0.0 0.00 0.00 0.00 85 1019.9
20260509153550 12 130 0.0 0.0 0.00 0.00 0.00 87 1020.0
20260509152549 12 313 0.0 0.0 0.00 0.00 0.00 88 1020.2
20260509151548 11 313 0.0 0.0 0.00 0.00 0.00 89 1020.3
20260509150547 11 313 0.0 0.0 0.00 0.00 0.00 89 1020.4
20260509145546 11 319 0.0 0.0 0.00 0.00 0.00 91 1020.4
20260509142543 10 350 0.0 0.0 0.00 0.00 0.00 93 1020.2
20260509141542 10 360 0.0 0.0 0.00 0.00 0.00 92 1020.3
20260509140541 10 360 0.0 0.0 0.00 0.00 0.00 92 1020.2
20260509135540 9 360 0.0 0.0 0.00 0.00 0.00 91 1020.2
20260509133538 9 360 0.0 0.0 0.00 0.00 0.00 91 1019.9
20260509132537 9 360 0.0 0.0 0.00 0.00 0.00 90 1020.0
20260509131536 9 360 0.0 0.0 0.00 0.00 0.00 90 1020.0
20260509130535 9 360 0.0 0.0 0.00 0.00 0.00 90 1020.0
20260509125534 9 360 0.0 0.0 0.00 0.00 0.00 89 1019.9
20260509122531 10 360 0.0 0.0 0.00 0.00 0.00 89 1020.2
20260509121529 10 360 0.0 0.0 0.00 0.00 0.00 88 1020.2
20260509120528 10 360 0.0 0.0 0.00 0.00 0.00 88 1020.0
20260509115527 10 360 0.0 0.0 0.00 0.00 0.00 88 1020.1
20260509114527 10 360 0.0 0.0 0.00 0.00 0.00 87 1020.2
20260509113526 10 360 0.0 0.0 0.00 0.00 0.00 87 1020.2
20260509111523 11 360 0.0 0.0 0.00 0.00 0.00 87 1020.4
20260509110522 11 360 0.0 0.0 0.00 0.00 0.00 87 1020.5
20260509105521 11 360 0.0 0.0 0.00 0.00 0.00 86 1020.6
20260509103519 11 360 0.0 0.0 0.00 0.00 0.00 85 1020.5
20260509102519 11 360 0.0 0.0 0.00 0.00 0.00 84 1020.5
20260509101518 11 360 0.0 0.0 0.00 0.00 0.00 84 1020.6
20260509100517 11 360 0.0 0.0 0.00 0.00 0.00 83 1020.6
20260509095515 12 360 0.0 0.0 0.00 0.00 0.00 83 1020.7
20260509094514 12 360 0.0 0.0 0.00 0.00 0.00 83 1020.7
20260509092512 12 360 0.0 0.0 0.00 0.00 0.00 82 1020.8
20260509091512 12 360 0.0 0.0 0.00 0.00 0.00 82 1020.7
20260509085509 12 316 0.0 0.0 0.00 0.00 0.00 80 1020.9
20260509084508 12 316 0.0 0.0 0.00 0.00 0.00 80 1020.9
20260509083507 12 316 0.0 0.0 0.00 0.00 0.00 79 1021.0
20260509082506 13 316 0.0 0.0 0.00 0.00 0.00 79 1021.1
20260509081505 13 316 0.0 0.0 0.00 0.00 0.00 79 1021.3
20260509080504 13 316 0.0 0.0 0.00 0.00 0.00 78 1021.3
20260509075503 13 316 0.0 0.0 0.00 0.00 0.00 78 1021.4
20260509074502 13 316 0.0 0.0 0.00 0.00 0.00 77 1021.4
20260509073501 13 316 0.0 0.0 0.00 0.00 0.00 76 1021.4
20260509071459 14 316 0.0 0.0 0.00 0.00 0.00 75 1021.4
20260509070458 14 316 0.0 0.0 0.00 0.00 0.00 74 1021.4
20260509065457 14 316 0.0 0.0 0.00 0.00 0.00 74 1021.4
20260509064456 14 323 0.0 0.0 0.00 0.00 0.00 73 1021.5
20260509063455 15 324 0.0 0.0 0.00 0.00 0.00 72 1021.5
20260509062454 15 324 0.0 0.0 0.00 0.00 0.00 71 1021.3
20260509061453 15 325 0.0 0.0 0.00 0.00 0.00 70 1021.3
20260509055451 15 313 1.6 0.0 0.00 0.00 0.00 69 1021.3
20260509054450 16 313 0.0 0.0 0.00 0.00 0.00 68 1021.3
20260509053449 16 306 0.0 0.0 0.00 0.00 0.00 68 1021.2
20260509051447 16 313 0.0 0.0 0.00 0.00 0.00 67 1021.1
20260509050446 16 307 0.0 0.0 0.00 0.00 0.00 66 1021.0
20260509045445 16 296 0.0 0.0 0.00 0.00 0.00 65 1021.0
20260509044444 16 309 0.0 0.0 0.00 0.00 0.00 64 1020.9
20260509042442 17 326 0.0 0.0 0.00 0.00 0.00 63 1020.6
20260509040440 17 346 0.0 0.0 0.00 0.00 0.00 62 1020.4
20260509035439 17 317 4.8 0.0 0.00 0.00 0.00 61 1020.3
20260509034438 18 320 0.0 0.0 0.00 0.00 0.00 60 1020.1
20260509033437 18 320 0.0 0.0 0.00 0.00 0.00 59 1020.0
20260509032436 18 343 0.0 0.0 0.00 0.00 0.00 58 1019.9
20260509031435 18 322 8.0 0.0 0.00 0.00 0.00 56 1019.8
20260509030434 18 325 0.0 0.0 0.00 0.00 0.00 55 1019.8
20260509025433 19 329 4.8 0.0 0.00 0.00 0.00 54 1019.8
20260509024432 19 322 0.0 0.0 0.00 0.00 0.00 54 1019.8
20260509023431 19 329 0.0 0.0 0.00 0.00 0.00 53 1019.6
20260509022430 20 341 0.0 0.0 0.00 0.00 0.00 53 1019.6
20260509021429 20 338 0.0 0.0 0.00 0.00 0.00 52 1019.6
20260509015427 20 329 0.0 0.0 0.00 0.00 0.00 51 1019.6
20260509014426 20 321 0.0 0.0 0.00 0.00 0.00 52 1019.6
20260509013425 20 322 0.0 0.0 0.00 0.00 0.00 51 1019.7
20260509012424 20 322 0.0 0.0 0.00 0.00 0.00 50 1019.7
20260509011423 20 320 0.0 0.0 0.00 0.00 0.00 51 1019.7
20260509010421 20 320 0.0 0.0 0.00 0.00 0.00 50 1019.7
20260509005421 20 321 0.0 0.0 0.00 0.00 0.00 50 1019.8
20260509004420 20 323 0.0 0.0 0.00 0.00 0.00 48 1019.8
20260509003419 21 317 3.2 0.0 0.00 0.00 0.00 48 1019.8
20260509002418 21 342 0.0 0.0 0.00 0.00 0.00 48 1019.9